This is the latest recevied weather packets stored in our database for station/object SV2RCS-13. If no packets are shown the sender has not sent any weather packets the latest 10 day(s).
| Time | Temp. | Humidity | Pressure | Rain* | Wind** | Luminosity | Snow |
|---|---|---|---|---|---|---|---|
| 1777835819 | 8.33° C | 39% | 1019.2 hPa | - | - | - | - |
| 1777835220 | 8.33° C | 39% | 1019.1 hPa | - | - | - | - |
| 1777834620 | 8.89° C | 39% | 1019 hPa | - | - | - | - |
| 1777834019 | 8.89° C | 39% | 1018.8 hPa | - | - | - | - |
| 1777833419 | 8.89° C | 39% | 1018.6 hPa | - | - | - | - |
| 1777832820 | 8.89° C | 40% | 1018.5 hPa | - | - | - | - |
| 1777832220 | 9.44° C | 40% | 1018.3 hPa | - | - | - | - |
| 1777831620 | 9.44° C | 39% | 1018 hPa | - | - | - | - |
| 1777831020 | 9.44° C | 39% | 1018.1 hPa | - | - | - | - |
| 1777830421 | 10° C | 38% | 1017.9 hPa | - | - | - | - |
| 1777829821 | 10° C | 37% | 1017.6 hPa | - | - | - | - |
| 1777829219 | 10.56° C | 37% | 1017.4 hPa | - | - | - | - |
| 1777828622 | 10.56° C | 34% | 1017.2 hPa | - | - | - | - |
| 1777828019 | 11.11° C | 29% | 1016.9 hPa | - | - | - | - |
| 1777827420 | 11.67° C | 28% | 1016.6 hPa | - | - | - | - |
| 1777826822 | 11.67° C | 26% | 1016.5 hPa | - | - | - | - |
| 1777826220 | 11.67° C | 26% | 1016.4 hPa | - | - | - | - |
| 1777825620 | 11.67° C | 25% | 1016.4 hPa | - | - | - | - |
| 1777825020 | 11.67° C | 25% | 1016.3 hPa | - | - | - | - |
| 1777824420 | 12.22° C | 25% | 1016.3 hPa | - | - | - | - |
| 1777823819 | 12.22° C | 25% | 1016.3 hPa | - | - | - | - |
| 1777823220 | 12.22° C | 25% | 1016.2 hPa | - | - | - | - |
| 1777822620 | 12.22° C | 24% | 1016.1 hPa | - | - | - | - |
| 1777822019 | 12.22° C | 24% | 1016.2 hPa | - | - | - | - |
| 1777821419 | 12.22° C | 24% | 1016.2 hPa | - | - | - | - |
* Rain since midnight (hover to see other rain measurements)
** Current wind speed in m/s (hover to see current wind gust speed)